Home > Weather > Budapest > Past weeks

Flag for Hungary Past Weather in Budapest, Hungary — Yesterday and Last 2 Weeks

Now
52 °F

Clear.


Feels Like: 51 °F
Forecast: 58 / 72 °F
Wind: 5 mph from Southeast

Location: Ferenc Liszt International Airport

Current Time: Jun 1, 2016 at 3:55:12 AM

Latest Report: Jun 1, 2016 at 3:30 AM


Visibility: 10 mi

Pressure: 29.92 "Hg

Humidity: 94%

Dew Point: 50 °F

Location of BudapestLocation

Past Weather in Budapest — Graph

°F

Budapest Temperature Yesterday

Maximum temperature yesterday: 81 °F (at 3:00 PM)
Minimum temperature yesterday: 52 °F (at 4:30 AM)
Average temperature yesterday: 67 °F

High & Low Weather Summary for the Past Weeks

 TemperatureHumidityPressure
High84 °F (May 29, 2:30 PM)100% (May 19, 7:30 AM)30.12 "Hg (May 19, 7:30 AM)
Low39 °F (May 17, 3:00 AM)32% (May 22, 3:00 PM)29.65 "Hg (May 24, 4:30 AM)
Average64 °F69%29.92 "Hg
* Reported May 17 3:00 AM — Jun 1 3:00 AM, Budapest, Weather by CustomWeather, © 2016

Note: Actual official high and low records may vary slightly from our data, if they occured in-between our weather recording intervals... More about our weather records

Advertising

Budapest Weather History for the Previous 24 Hours

Scroll right to see more
 ConditionsComfort  
Time TempWeatherWind HumidityBarometerVisibility
3:00 AM
Wed, Jun 1
54 °FClear.1 mph94%29.92 "Hg10 mi
2:30 AM54 °FClear.1 mph88%29.92 "Hg10 mi
2:00 AM54 °FClear.2 mph88%29.89 "Hg10 mi
1:30 AM54 °FClear.3 mph94%29.92 "Hg10 mi
1:00 AM57 °FClear.3 mph88%29.92 "Hg10 mi
12:30 AM59 °FClear.5 mph82%29.92 "Hg10 mi
12:00 AM57 °FClear.5 mph82%29.92 "Hg10 mi
11:30 PM
Tue, May 31
59 °FClear.1 mph82%29.89 "Hg10 mi
11:00 PM61 °FClear.1 mph83%29.89 "Hg10 mi
10:30 PM59 °FClear.1 mph82%29.89 "Hg10 mi
10:00 PM64 °FClear.2 mph68%29.89 "Hg10 mi
9:30 PM63 °FSunny.1 mph77%29.89 "Hg10 mi
9:00 PM66 °FSunny.2 mph64%29.86 "Hg10 mi
8:30 PM70 °FSunny.6 mph57%29.86 "Hg10 mi
8:00 PM73 °FSunny.8 mph50%29.86 "Hg10 mi
7:30 PM75 °FSunny.10 mph47%29.86 "Hg10 mi
7:00 PM77 °FSunny.13 mph42%29.86 "Hg10 mi
6:30 PM77 °FSunny.10 mph44%29.83 "Hg10 mi
6:00 PM77 °FSunny.13 mph44%29.83 "Hg10 mi
5:30 PM79 °FPassing clouds.14 mph39%29.83 "HgN/A
5:00 PM77 °FPassing clouds.12 mph42%29.83 "HgN/A
4:30 PM81 °FPassing clouds.12 mph39%29.83 "HgN/A
4:00 PM79 °FPassing clouds.12 mph39%29.83 "HgN/A
3:30 PM77 °FPassing clouds.10 mph42%29.83 "HgN/A
3:00 PM81 °FPassing clouds.10 mph39%29.86 "HgN/A
2:30 PM77 °FPassing clouds.15 mph42%29.86 "HgN/A
2:00 PM75 °FPassing clouds.14 mph41%29.86 "HgN/A
1:30 PM77 °FPassing clouds.13 mph39%29.86 "HgN/A
1:00 PM75 °FPassing clouds.13 mph41%29.86 "HgN/A
12:30 PM75 °FPassing clouds.14 mph44%29.86 "HgN/A
12:00 PM73 °FScattered clouds.9 mph47%29.86 "HgN/A
11:30 AM73 °FScattered clouds.14 mph50%29.86 "HgN/A
11:00 AM72 °FPassing clouds.13 mph53%29.86 "HgN/A
10:30 AM72 °FPassing clouds.10 mph57%29.86 "HgN/A
10:00 AM70 °FPassing clouds.15 mph60%29.86 "HgN/A
9:30 AM70 °FPassing clouds.14 mph60%29.86 "HgN/A
9:00 AM68 °FPassing clouds.14 mph64%29.86 "HgN/A
8:30 AM66 °FSunny.9 mph73%29.86 "Hg10 mi
8:00 AM66 °FPassing clouds.8 mph83%29.86 "HgN/A
7:30 AM63 °FPassing clouds.7 mph88%29.86 "HgN/A
7:00 AM63 °FSunny.3 mph88%29.86 "Hg10 mi
6:30 AM59 °FSunny.3 mph100%29.83 "Hg10 mi
6:00 AM55 °FSunny.3 mph100%29.83 "Hg10 mi
5:30 AM55 °FClear.3 mph100%29.83 "Hg10 mi
5:00 AM55 °FClear.5 mph100%29.83 "Hg10 mi
4:30 AM52 °FClear.5 mph100%29.83 "Hg10 mi
4:00 AM54 °FClear.2 mph94%29.83 "Hg10 mi
3:30 AM54 °FClear.1 mph100%29.83 "Hg10 mi
3:00 AM54 °FClear.2 mph94%29.83 "Hg10 mi
Weather by CustomWeather, © 2016

See weather overviewHow to use our weather pages